[Date Prev][Date Next][Thread Prev][Thread Next] - [Date Index][Thread Index][Author Index]

2 LIne ISS Keps 7-20



ISS
1 25544U 98067A   01201.22212551  .00001203  00000-0  21278-4 0  2335
2 25544  51.5672 281.4743 0012145 274.0243 180.5625 15.59532239152247



----
Via the sarex mailing list at AMSAT.ORG courtesy of AMSAT-NA.
To unsubscribe, send "unsubscribe sarex" to Majordomo@amsat.org



AMSAT Top AMSAT Home